Year,Month,Day,Hour,Minute,Value (Times are PST for temperature in C)
2015,03,26,08,21,10.60
2015,03,26,08,22,10.60
2015,03,26,08,23,10.60
2015,03,26,08,24,10.60
2015,03,26,08,25,10.60
2015,03,26,08,26,10.60
2015,03,26,08,27,10.60
2015,03,26,08,28,10.60
2015,03,26,08,29,10.60
2015,03,26,08,30,10.60
2015,03,26,08,31,10.60
2015,03,26,08,32,10.60
2015,03,26,10,32,12.70
2015,03,26,10,33,12.70
2015,03,26,10,34,12.70
2015,03,26,10,35,12.80
2015,03,26,10,36,12.80
2015,03,26,10,37,12.80
2015,03,26,10,38,12.80
2015,03,26,10,39,12.90
2015,03,26,10,40,13.00
2015,03,26,10,41,13.10
2015,03,26,10,42,13.10
2015,03,26,10,43,13.20
2015,03,26,10,44,13.20
2015,03,26,10,45,13.30
2015,03,26,10,46,13.30
2015,03,26,10,47,13.40
2015,03,26,10,48,13.40
2015,03,26,10,49,13.50
2015,03,26,10,50,13.50
2015,03,26,10,51,13.60
2015,03,26,10,52,13.60
2015,03,26,10,53,13.70
2015,03,26,10,54,13.70
2015,03,26,10,55,13.70
2015,03,26,10,56,13.70
2015,03,26,10,57,13.70
2015,03,26,10,58,13.70
2015,03,26,10,59,13.70
2015,03,26,11,00,13.70
2015,03,26,11,01,13.70
2015,03,26,11,02,13.80
2015,03,26,11,03,13.80
2015,03,26,11,04,13.90
2015,03,26,11,05,13.90
2015,03,26,11,06,14.00
2015,03,26,11,07,14.00
2015,03,26,11,08,14.00
2015,03,26,11,09,14.10
2015,03,26,11,10,14.10
2015,03,26,11,11,14.10
2015,03,26,11,12,14.10
2015,03,26,11,13,14.10
2015,03,26,11,14,14.10
2015,03,26,11,15,14.00
2015,03,26,11,16,14.00
2015,03,26,11,17,13.90
2015,03,26,11,18,13.90
2015,03,26,11,19,13.80
2015,03,26,11,20,13.80
2015,03,26,11,21,13.80
2015,03,26,11,22,13.80
2015,03,26,11,23,13.80
2015,03,26,11,24,13.80
2015,03,26,11,25,13.80
2015,03,26,11,26,13.90
2015,03,26,11,27,13.90
2015,03,26,11,28,13.90
2015,03,26,11,29,13.90
2015,03,26,11,30,13.90
2015,03,26,11,31,14.00
2015,03,26,11,32,14.00
2015,03,26,11,33,14.00
2015,03,26,11,34,14.00
2015,03,26,11,35,14.00
2015,03,26,11,36,14.00
2015,03,26,11,37,14.00
2015,03,26,11,38,14.10
2015,03,26,11,39,14.10
2015,03,26,11,40,14.10
2015,03,26,11,41,14.10
2015,03,26,11,42,14.20
2015,03,26,11,43,14.20
2015,03,26,11,44,14.20
2015,03,26,11,45,14.20
2015,03,26,11,46,14.20
2015,03,26,11,47,14.20
2015,03,26,11,48,14.20
2015,03,26,11,49,14.20
2015,03,26,11,50,14.10
2015,03,26,11,51,14.10
2015,03,26,11,52,14.10
2015,03,26,11,53,14.10
2015,03,26,11,54,14.10
2015,03,26,11,55,14.10
2015,03,26,11,56,14.10
2015,03,26,11,57,14.10
2015,03,26,11,58,14.10
2015,03,26,11,59,14.20
2015,03,26,12,00,14.20
2015,03,26,12,01,14.20
2015,03,26,12,02,14.20
2015,03,26,12,03,14.20
2015,03,26,12,04,14.20
2015,03,26,12,05,14.30
2015,03,26,12,06,14.30
2015,03,26,12,07,14.30
2015,03,26,12,08,14.40
2015,03,26,12,09,14.40
2015,03,26,12,10,14.40
2015,03,26,12,11,14.50
2015,03,26,12,12,14.50
2015,03,26,12,13,14.60
2015,03,26,12,14,14.70
2015,03,26,12,15,14.80
2015,03,26,12,16,14.80
2015,03,26,12,17,14.80
2015,03,26,12,18,14.80
2015,03,26,12,19,14.80
2015,03,26,12,20,14.80
2015,03,26,12,21,14.80
2015,03,26,12,22,14.80
2015,03,26,12,23,14.90
2015,03,26,12,24,14.90
2015,03,26,12,25,14.80
2015,03,26,12,26,14.80
2015,03,26,12,27,14.80
2015,03,26,12,28,14.80
2015,03,26,12,29,14.90
2015,03,26,12,30,15.00
2015,03,26,12,31,15.00
2015,03,26,12,32,15.00
2015,03,26,12,33,15.00
2015,03,26,12,34,14.90
2015,03,26,12,35,14.90
2015,03,26,12,36,15.00
2015,03,26,12,37,15.10
2015,03,26,12,38,15.20
2015,03,26,12,39,15.20
2015,03,26,12,40,15.30
2015,03,26,12,41,15.30
2015,03,26,12,42,15.30
2015,03,26,12,43,15.30
2015,03,26,12,44,15.30
2015,03,26,12,45,15.40
2015,03,26,12,46,15.40
2015,03,26,12,47,15.30
2015,03,26,12,48,15.30
2015,03,26,12,49,15.30
2015,03,26,12,50,15.30
2015,03,26,12,51,15.30
2015,03,26,12,52,15.30
2015,03,26,12,53,15.30
2015,03,26,12,54,15.30
2015,03,26,12,55,15.50
2015,03,26,12,56,15.60
2015,03,26,12,57,15.60
2015,03,26,12,58,15.80
2015,03,26,12,59,15.80
2015,03,26,13,00,15.80
2015,03,26,13,01,15.80
2015,03,26,13,02,15.80
2015,03,26,13,03,15.80
2015,03,26,13,04,15.80
2015,03,26,13,05,15.70
2015,03,26,13,06,15.80
2015,03,26,13,07,15.70
2015,03,26,13,08,15.70
2015,03,26,13,09,15.70
2015,03,26,13,10,15.70
2015,03,26,13,11,15.70
2015,03,26,13,12,15.70
2015,03,26,13,13,15.80
2015,03,26,13,14,15.90
2015,03,26,13,15,16.00
2015,03,26,13,16,16.10
2015,03,26,13,17,16.10
2015,03,26,13,18,16.10
2015,03,26,13,19,16.20
2015,03,26,13,20,16.20
2015,03,26,13,21,16.20
2015,03,26,13,22,16.20
2015,03,26,13,23,16.20
2015,03,26,13,24,16.20
2015,03,26,13,25,16.20
2015,03,26,13,26,16.30
2015,03,26,13,27,16.30
2015,03,26,13,28,16.30
2015,03,26,13,29,16.20
2015,03,26,13,30,16.30
2015,03,26,13,31,16.30
2015,03,26,13,32,16.30
2015,03,26,13,33,16.30
2015,03,26,13,34,16.30
2015,03,26,13,35,16.30
2015,03,26,13,36,16.30
2015,03,26,13,37,16.30
2015,03,26,13,38,16.30
2015,03,26,13,39,16.30
2015,03,26,13,40,16.30
2015,03,26,13,41,16.30
2015,03,26,13,42,16.40
2015,03,26,13,43,16.40
2015,03,26,13,44,16.50
2015,03,26,13,45,16.60
2015,03,26,13,46,16.70
2015,03,26,13,47,16.70
2015,03,26,13,48,16.80
2015,03,26,13,49,16.90
2015,03,26,13,50,16.90
2015,03,26,13,51,16.90
2015,03,26,13,52,16.90
2015,03,26,13,53,16.90
2015,03,26,13,54,16.90
2015,03,26,13,55,17.00
2015,03,26,13,56,17.00
2015,03,26,13,57,17.00
2015,03,26,13,58,17.00
2015,03,26,13,59,17.00
2015,03,26,14,00,16.90
2015,03,26,14,01,16.90
2015,03,26,14,02,16.90
2015,03,26,14,03,17.00
2015,03,26,14,04,17.00
2015,03,26,14,05,17.10
2015,03,26,14,06,17.10
2015,03,26,14,07,17.10
2015,03,26,14,08,17.00
2015,03,26,14,09,17.00
2015,03,26,14,10,16.90
2015,03,26,14,11,16.90
2015,03,26,14,12,16.80
2015,03,26,14,13,16.80
2015,03,26,14,14,16.70
2015,03,26,14,15,16.70
2015,03,26,14,16,16.70
2015,03,26,14,17,16.70
2015,03,26,14,18,16.70
2015,03,26,14,19,16.70
2015,03,26,14,20,16.70
2015,03,26,14,21,16.70
2015,03,26,14,22,16.60
2015,03,26,14,23,16.60
2015,03,26,14,24,16.60
2015,03,26,14,25,16.70
2015,03,26,14,26,16.70
2015,03,26,14,27,16.70
2015,03,26,14,28,16.70
2015,03,26,14,29,16.70
2015,03,26,14,30,16.70
2015,03,26,14,31,16.70
2015,03,26,14,32,16.80
2015,03,26,14,33,16.80
2015,03,26,14,34,16.90
2015,03,26,14,35,16.80
2015,03,26,14,36,16.80
2015,03,26,14,37,16.90
2015,03,26,14,38,16.90
2015,03,26,14,39,16.90
2015,03,26,14,40,16.90
2015,03,26,14,41,17.00
2015,03,26,14,42,17.00
2015,03,26,14,43,17.10
2015,03,26,14,44,17.20
2015,03,26,14,45,17.20
2015,03,26,14,46,17.20
2015,03,26,14,47,17.30
2015,03,26,14,48,17.30
2015,03,26,14,49,17.30
2015,03,26,14,50,17.30
2015,03,26,14,51,17.40
2015,03,26,14,52,17.40
2015,03,26,14,53,17.50
2015,03,26,14,54,17.50
2015,03,26,14,55,17.50
2015,03,26,14,56,17.40
2015,03,26,14,57,17.40
2015,03,26,14,58,17.30
2015,03,26,14,59,17.30
2015,03,26,15,00,17.40
2015,03,26,15,01,17.40
2015,03,26,15,02,17.50
2015,03,26,15,03,17.50
2015,03,26,15,04,17.50
2015,03,26,15,05,17.50
2015,03,26,15,06,17.60
2015,03,26,15,07,17.70
2015,03,26,15,08,17.70
2015,03,26,15,09,17.80
2015,03,26,15,10,17.80
2015,03,26,15,11,17.90
2015,03,26,15,12,17.90
2015,03,26,15,13,17.90
2015,03,26,15,14,17.90
2015,03,26,15,15,17.90
2015,03,26,15,16,17.90
2015,03,26,15,17,17.80
2015,03,26,15,18,17.80
2015,03,26,15,19,17.80
2015,03,26,15,20,17.70
2015,03,26,15,21,17.80
2015,03,26,15,22,17.80
2015,03,26,15,23,17.70
2015,03,26,15,24,17.60
2015,03,26,15,25,17.60
2015,03,26,15,26,17.50
2015,03,26,15,27,17.30
2015,03,26,15,28,17.30
2015,03,26,15,29,17.10
2015,03,26,15,30,16.90
2015,03,26,15,31,16.80
2015,03,26,15,32,16.60
2015,03,26,15,33,16.50
2015,03,26,15,34,16.30
2015,03,26,15,35,16.20
2015,03,26,15,36,16.10
2015,03,26,15,37,16.00
2015,03,26,15,38,15.90
2015,03,26,15,39,15.80
2015,03,26,15,40,15.80
2015,03,26,15,41,15.70
2015,03,26,15,42,15.60
2015,03,26,15,43,15.50
2015,03,26,15,44,15.50
2015,03,26,15,45,15.50
2015,03,26,15,46,15.50
2015,03,26,15,47,15.40
2015,03,26,15,48,15.40
2015,03,26,15,49,15.40
2015,03,26,15,50,15.40
2015,03,26,15,51,15.40
2015,03,26,15,52,15.40
2015,03,26,15,53,15.40
2015,03,26,15,54,15.40
2015,03,26,15,55,15.40
2015,03,26,15,56,15.30
2015,03,26,15,57,15.30
2015,03,26,15,58,15.30
2015,03,26,15,59,15.30
2015,03,26,16,00,15.30
2015,03,26,16,01,15.30
2015,03,26,16,02,15.30
2015,03,26,16,03,15.40
2015,03,26,16,04,15.40
2015,03,26,16,05,15.40
2015,03,26,16,06,15.40
2015,03,26,16,07,15.50
2015,03,26,16,08,15.50
2015,03,26,16,09,15.50
2015,03,26,16,10,15.50
2015,03,26,16,11,15.50
2015,03,26,16,12,15.60
2015,03,26,16,13,15.60
2015,03,26,16,14,15.60
2015,03,26,16,15,15.70
2015,03,26,16,16,15.70
2015,03,26,16,17,15.70
2015,03,26,16,18,15.80
2015,03,26,16,19,15.90
2015,03,26,16,20,15.90
2015,03,26,16,21,15.90
2015,03,26,16,22,15.90
2015,03,26,16,23,15.90
2015,03,26,16,24,15.80
2015,03,26,16,25,15.80
2015,03,26,16,26,15.80
2015,03,26,16,27,15.70
2015,03,26,16,28,15.70
2015,03,26,16,29,15.60
2015,03,26,16,30,15.50
2015,03,26,16,31,15.50
2015,03,26,16,32,15.40
2015,03,26,16,33,15.30
2015,03,26,16,34,15.30
2015,03,26,16,35,15.30
2015,03,26,16,36,15.20
2015,03,26,16,37,15.20
2015,03,26,16,38,15.20
2015,03,26,16,39,15.10
2015,03,26,16,40,15.10
2015,03,26,16,41,15.10
2015,03,26,16,42,15.00
2015,03,26,16,43,15.00
2015,03,26,16,44,15.00
2015,03,26,16,45,15.00
2015,03,26,16,46,15.00
2015,03,26,16,47,15.00
2015,03,26,16,48,15.00
2015,03,26,16,49,15.00
2015,03,26,16,50,15.00
2015,03,26,16,51,15.10
2015,03,26,16,52,15.20
2015,03,26,16,53,15.20
2015,03,26,16,54,15.20
2015,03,26,16,55,15.20
2015,03,26,16,56,15.30
2015,03,26,16,57,15.30
2015,03,26,16,58,15.30
2015,03,26,16,59,15.40
2015,03,26,17,00,15.40
2015,03,26,17,01,15.50
2015,03,26,17,02,15.60
2015,03,26,17,03,15.70
2015,03,26,17,04,15.80
2015,03,26,17,05,15.80
2015,03,26,17,06,15.80
2015,03,26,17,07,15.80
2015,03,26,17,08,15.80
2015,03,26,17,09,15.80
2015,03,26,17,10,15.80
2015,03,26,17,11,15.80
2015,03,26,17,12,15.80
2015,03,26,17,13,15.80
2015,03,26,17,14,15.90
2015,03,26,17,15,15.90
2015,03,26,17,16,16.00
2015,03,26,17,17,16.10
2015,03,26,17,18,16.10
2015,03,26,17,19,16.10
2015,03,26,17,20,16.20
2015,03,26,17,21,16.20
2015,03,26,17,22,16.20
2015,03,26,17,23,16.30
2015,03,26,17,24,16.30
2015,03,26,17,25,16.30
2015,03,26,17,26,16.40
2015,03,26,17,27,16.40
2015,03,26,17,28,16.40
2015,03,26,17,29,16.40
2015,03,26,17,30,16.40
2015,03,26,17,31,16.40
2015,03,26,17,32,16.40
2015,03,26,17,33,16.40
2015,03,26,17,34,16.40
2015,03,26,17,35,16.60
2015,03,26,17,36,16.60
2015,03,26,17,37,16.60
2015,03,26,17,38,16.60
2015,03,26,17,39,16.60
2015,03,26,17,40,16.60
2015,03,26,17,41,16.50
2015,03,26,17,42,16.50
2015,03,26,17,43,16.60
2015,03,26,17,44,16.50
2015,03,26,17,45,16.40
2015,03,26,17,46,16.40
2015,03,26,17,47,16.40
2015,03,26,17,48,16.40
2015,03,26,17,49,16.40
2015,03,26,17,50,16.40
2015,03,26,17,51,16.50
2015,03,26,17,52,16.60
2015,03,26,17,53,16.60
2015,03,26,17,54,16.60
2015,03,26,17,55,16.60
2015,03,26,17,56,16.60
2015,03,26,17,57,16.50
2015,03,26,17,58,16.40
2015,03,26,17,59,16.50
2015,03,26,18,00,16.60
2015,03,26,18,01,16.60
2015,03,26,18,02,16.60
2015,03,26,18,03,16.60
2015,03,26,18,04,16.60
2015,03,26,18,05,16.60
2015,03,26,18,06,16.60
2015,03,26,18,07,16.60
2015,03,26,18,08,16.50
2015,03,26,18,09,16.40
2015,03,26,18,10,16.40
2015,03,26,18,11,16.40
2015,03,26,18,12,16.40
2015,03,26,18,13,16.40
2015,03,26,18,14,16.30
2015,03,26,18,15,16.20
2015,03,26,18,16,16.10
2015,03,26,18,17,16.10
2015,03,26,18,18,16.00
2015,03,26,18,19,15.90
2015,03,26,18,20,15.80
2015,03,26,18,21,15.80
2015,03,26,18,22,15.70
2015,03,26,18,23,15.70
2015,03,26,18,24,15.70
2015,03,26,18,25,15.70
2015,03,26,18,26,15.60
2015,03,26,18,27,15.60
2015,03,26,18,28,15.60
2015,03,26,18,29,15.60
2015,03,26,18,30,15.60
2015,03,26,18,31,15.60
2015,03,26,18,32,15.50
2015,03,26,18,33,15.50
2015,03,26,18,34,15.50
2015,03,26,18,35,15.40
2015,03,26,18,36,15.40
2015,03,26,18,37,15.30
2015,03,26,18,38,15.30
2015,03,26,18,39,15.20
2015,03,26,18,40,15.20
2015,03,26,18,41,15.10
2015,03,26,18,42,15.00
2015,03,26,18,43,15.00
2015,03,26,18,44,14.90
2015,03,26,18,45,14.90
2015,03,26,18,46,14.90
2015,03,26,18,47,14.90
2015,03,26,18,48,14.90
2015,03,26,18,49,14.80
2015,03,26,18,50,14.80
2015,03,26,18,51,14.80
2015,03,26,18,52,14.70
2015,03,26,18,53,14.60
2015,03,26,18,54,14.60
2015,03,26,18,55,14.50
2015,03,26,18,56,14.50
2015,03,26,18,57,14.40
2015,03,26,18,58,14.40
2015,03,26,18,59,14.30
2015,03,26,19,00,14.30
2015,03,26,19,01,14.30
2015,03,26,19,02,14.20
2015,03,26,19,03,14.20
2015,03,26,19,04,14.20
2015,03,26,19,05,14.20
2015,03,26,19,06,14.20
2015,03,26,19,07,14.20
2015,03,26,19,08,14.20
2015,03,26,19,09,14.10
2015,03,26,19,10,14.00
2015,03,26,19,11,14.00
2015,03,26,19,12,13.90
2015,03,26,19,13,13.80
2015,03,26,19,14,13.80
2015,03,26,19,15,13.70
2015,03,26,19,16,13.70
2015,03,26,19,17,13.70
2015,03,26,19,18,13.60
2015,03,26,19,19,13.60
2015,03,26,19,20,13.50
2015,03,26,19,21,13.50
2015,03,26,19,22,13.50
2015,03,26,19,23,13.50
2015,03,26,19,24,13.50
2015,03,26,19,25,13.50
2015,03,26,19,26,13.50
2015,03,26,19,27,13.50
2015,03,26,19,28,13.50
2015,03,26,19,29,13.50
2015,03,26,19,30,13.50
2015,03,26,19,31,13.40
2015,03,26,19,32,13.40
2015,03,26,19,33,13.40
2015,03,26,19,34,13.40
2015,03,26,19,35,13.40
2015,03,26,19,36,13.30
2015,03,26,19,37,13.30
2015,03,26,19,38,13.30
2015,03,26,19,39,13.30
2015,03,26,19,40,13.30
2015,03,26,19,41,13.30
2015,03,26,19,42,13.30
2015,03,26,19,43,13.30
2015,03,26,19,44,13.30
2015,03,26,19,45,13.30
2015,03,26,19,46,13.30
2015,03,26,19,47,13.30
2015,03,26,19,48,13.30
2015,03,26,19,49,13.30
2015,03,26,19,50,13.30
2015,03,26,19,51,13.30
2015,03,26,19,52,13.30
2015,03,26,19,53,13.30
